• In Lithuania
  • List of Countries
  • For 7 days
  • Water Temperature
  • Satellite Maps
  • Weather Map
  • Weather Widgets
  • user-avatar
    Login

    Hourly Weather San Pedro Sula

    Today, 22 October, Sunday

    Time Temperature Precipitation Wind Pressure Humidity
    00:00 +23°C° 0.3 mm 0 mps 744 mmHg 98%
    01:00 +25°C° 0.1 mm 1 mps 744 mmHg 98%
    02:00 +25°C° 0.1 mm 1 mps 744 mmHg 98%
    03:00 +25°C° 0.1 mm 1 mps 743 mmHg 98%
    04:00 +25°C° 0.3 mm 1 mps 743 mmHg 98%
    05:00 +25°C° 0.3 mm 1 mps 744 mmHg 97%
    06:00 +25°C° 0.3 mm 1 mps 744 mmHg 97%
    07:00 +26°C° 0.4 mm 1 mps 744 mmHg 92%
    08:00 +27°C° 0.4 mm 1 mps 745 mmHg 87%
    09:00 +29°C° 0.4 mm 1 mps 745 mmHg 82%
    10:00 +29°C° 0.1 mm 1 mps 745 mmHg 78%
    11:00 +30°C° 0.1 mm 1 mps 744 mmHg 75%
    12:00 +30°C° 0.1 mm 1 mps 744 mmHg 71%
    13:00 +31°C° 0.1 mm 1 mps 743 mmHg 70%
    14:00 +31°C° 0.1 mm 1 mps 743 mmHg 69%
    15:00 +31°C° 0.1 mm 1 mps 742 mmHg 68%
    16:00 +30°C° 0.2 mm 1 mps 742 mmHg 74%
    17:00 +28°C° 0.2 mm 1 mps 743 mmHg 81%
    18:00 +27°C° 0.2 mm 1 mps 743 mmHg 87%
    19:00 +26°C° 0.9 mm 1 mps 744 mmHg 90%
    20:00 +26°C° 0.9 mm 1 mps 744 mmHg 93%
    21:00 +25°C° 0.9 mm 1 mps 745 mmHg 96%
    22:00 +25°C° 0.4 mm 1 mps 745 mmHg 96%
    23:00 +25°C° 0.4 mm 1 mps 744 mmHg 96%

    Tomorrow, 23 October, Monday

    Time Temperature Precipitation Wind Pressure Humidity
    00:00 +25°C° 0.4 mm 1 mps 744 mmHg 96%
    01:00 +25°C° 0.2 mm 1 mps 744 mmHg 96%
    02:00 +25°C° 0.2 mm 1 mps 744 mmHg 95%
    03:00 +25°C° 0.2 mm 1 mps 743 mmHg 95%
    04:00 +25°C° 0.4 mm 1 mps 743 mmHg 95%
    05:00 +25°C° 0.4 mm 2 mps 744 mmHg 96%
    06:00 +24°C° 0.4 mm 2 mps 744 mmHg 96%
    07:00 +26°C° 0.3 mm 2 mps 744 mmHg 88%
    08:00 +28°C° 0.3 mm 2 mps 745 mmHg 80%
    09:00 +30°C° 0.3 mm 2 mps 745 mmHg 72%
    10:00 +30°C° 0.6 mm 2 mps 745 mmHg 73%
    11:00 +31°C° 0.6 mm 2 mps 744 mmHg 74%
    12:00 +31°C° 0.6 mm 2 mps 744 mmHg 75%
    13:00 +30°C° 1.1 mm 2 mps 743 mmHg 79%
    14:00 +30°C° 1.1 mm 2 mps 743 mmHg 82%
    15:00 +29°C° 1.1 mm 2 mps 742 mmHg 85%
    16:00 +28°C° 0.9 mm 1 mps 742 mmHg 88%
    17:00 +27°C° 0.9 mm 1 mps 743 mmHg 90%
    18:00 +26°C° 0.9 mm 1 mps 743 mmHg 93%
    19:00 +26°C° 0.6 mm 1 mps 744 mmHg 94%
    20:00 +26°C° 0.6 mm 1 mps 744 mmHg 94%
    21:00 +26°C° 0.6 mm 1 mps 745 mmHg 95%
    22:00 +25°C° 0.6 mm 1 mps 745 mmHg 95%
    23:00 +25°C° 0.6 mm 1 mps 744 mmHg 95%

    Day after tomorrow, 24 October, Tuesday

    Time Temperature Precipitation Wind Pressure Humidity
    00:00 +25°C° 0.6 mm 1 mps 744 mmHg 95%
    01:00 +25°C° 0.5 mm 1 mps 744 mmHg 96%
    02:00 +25°C° 0.5 mm 1 mps 743 mmHg 96%
    03:00 +25°C° 0.5 mm 1 mps 743 mmHg 96%
    04:00 +25°C° 0.5 mm 1 mps 743 mmHg 96%
    05:00 +25°C° 0.5 mm 1 mps 743 mmHg 96%
    06:00 +25°C° 0.5 mm 1 mps 743 mmHg 96%
    07:00 +26°C° 0.6 mm 1 mps 744 mmHg 93%
    08:00 +27°C° 0.6 mm 1 mps 745 mmHg 90%
    09:00 +28°C° 0.6 mm 1 mps 745 mmHg 86%
    10:00 +28°C° 1.5 mm 1 mps 745 mmHg 87%
    11:00 +28°C° 1.5 mm 2 mps 744 mmHg 87%
    12:00 +28°C° 1.5 mm 2 mps 744 mmHg 88%
    13:00 +27°C° 3.7 mm 2 mps 743 mmHg 90%
    14:00 +27°C° 3.7 mm 3 mps 743 mmHg 93%
    15:00 +26°C° 3.7 mm 3 mps 743 mmHg 95%
    16:00 +25°C° 3.4 mm 3 mps 743 mmHg 96%
    17:00 +25°C° 3.4 mm 3 mps 744 mmHg 97%
    18:00 +24°C° 3.4 mm 3 mps 744 mmHg 98%
    19:00 +24°C° 3.3 mm 3 mps 745 mmHg 98%
    20:00 +24°C° 3.3 mm 3 mps 745 mmHg 98%
    21:00 +22°C° 3.3 mm 3 mps 746 mmHg 98%
    22:00 +22°C° 3.2 mm 3 mps 746 mmHg 98%
    23:00 +22°C° 3.2 mm 3 mps 746 mmHg 98%

    25 October, Wednesday

    Time Temperature Precipitation Wind Pressure Humidity
    00:00 +22°C° 3.2 mm 3 mps 745 mmHg 98%
    01:00 +22°C° 2.4 mm 3 mps 745 mmHg 98%
    02:00 +22°C° 2.4 mm 3 mps 745 mmHg 98%
    03:00 +22°C° 2.4 mm 3 mps 744 mmHg 98%
    04:00 +22°C° 1.9 mm 3 mps 744 mmHg 98%
    05:00 +21°C° 1.9 mm 2 mps 745 mmHg 98%
    06:00 +21°C° 1.9 mm 2 mps 745 mmHg 98%
    07:00 +22°C° 1.1 mm 3 mps 745 mmHg 97%
    08:00 +22°C° 1.1 mm 3 mps 746 mmHg 97%
    09:00 +22°C° 1.1 mm 3 mps 746 mmHg 97%
    10:00 +22°C° 1.2 mm 3 mps 746 mmHg 97%
    11:00 +22°C° 1.2 mm 3 mps 745 mmHg 97%
    12:00 +22°C° 1.2 mm 3 mps 745 mmHg 98%
    13:00 +22°C° 3 mm 3 mps 744 mmHg 98%
    14:00 +22°C° 3 mm 3 mps 744 mmHg 98%
    15:00 +22°C° 3 mm 3 mps 743 mmHg 98%
    16:00 +22°C° 4.1 mm 3 mps 744 mmHg 98%
    17:00 +22°C° 4.1 mm 3 mps 745 mmHg 98%
    18:00 +22°C° 4.1 mm 3 mps 745 mmHg 98%
    19:00 +22°C° 4.3 mm 3 mps 746 mmHg 98%
    20:00 +22°C° 4.3 mm 3 mps 746 mmHg 98%
    21:00 +21°C° 4.3 mm 3 mps 747 mmHg 98%
    22:00 +21°C° 3.6 mm 3 mps 746 mmHg 98%
    23:00 +21°C° 3.6 mm 3 mps 746 mmHg 98%

    26 October, Thursday

    Time Temperature Precipitation Wind Pressure Humidity
    00:00 +21°C° 3.6 mm 3 mps 745 mmHg 98%
    01:00 +21°C° 2.7 mm 3 mps 745 mmHg 98%
    02:00 +21°C° 2.7 mm 3 mps 745 mmHg 98%
    03:00 +21°C° 2.7 mm 2 mps 745 mmHg 98%
    04:00 +21°C° 1.5 mm 2 mps 745 mmHg 98%
    05:00 +21°C° 1.5 mm 2 mps 745 mmHg 98%
    06:00 +21°C° 1.5 mm 2 mps 746 mmHg 98%
    07:00 +21°C° 1.1 mm 3 mps 746 mmHg 98%
    08:00 +21°C° 1.1 mm 3 mps 747 mmHg 98%
    09:00 +21°C° 1.1 mm 3 mps 747 mmHg 98%
    10:00 +21°C° 0.7 mm 3 mps 747 mmHg 97%
    11:00 +21°C° 0.7 mm 2 mps 746 mmHg 97%
    12:00 +21°C° 0.7 mm 2 mps 746 mmHg 96%
    13:00 +21°C° 0.4 mm 2 mps 745 mmHg 95%
    14:00 +21°C° 0.4 mm 2 mps 745 mmHg 94%
    15:00 +21°C° 0.4 mm 2 mps 744 mmHg 93%
    16:00 +21°C° 0.1 mm 2 mps 745 mmHg 93%
    17:00 +21°C° 0.1 mm 2 mps 745 mmHg 94%
    18:00 +21°C° 0.1 mm 2 mps 745 mmHg 95%
    19:00 +21°C° 0.1 mm 2 mps 746 mmHg 94%
    20:00 +21°C° 0.1 mm 2 mps 746 mmHg 94%
    21:00 +21°C° 0.1 mm 2 mps 746 mmHg 94%
    22:00 +20°C° 0.1 mm 2 mps 746 mmHg 94%
    23:00 +20°C° 0.1 mm 2 mps 745 mmHg 94%

    27 October, Friday

    Time Temperature Precipitation Wind Pressure Humidity
    00:00 +20°C° 0.1 mm 2 mps 744 mmHg 94%
    01:00 +20°C° 0 mm 2 mps 744 mmHg 94%
    02:00 +20°C° 0 mm 2 mps 744 mmHg 94%
    03:00 +19°C° 0 mm 2 mps 743 mmHg 94%
    04:00 +20°C° 0 mm 2 mps 743 mmHg 93%
    05:00 +21°C° 0 mm 1 mps 744 mmHg 93%
    06:00 +21°C° 0 mm 1 mps 744 mmHg 92%
    07:00 +23°C° 0 mm 1 mps 744 mmHg 83%
    08:00 +25°C° 0 mm 1 mps 744 mmHg 74%
    09:00 +27°C° 0 mm 1 mps 744 mmHg 65%
    10:00 +29°C° 0 mm 1 mps 744 mmHg 60%
    11:00 +31°C° 0 mm 1 mps 743 mmHg 55%
    12:00 +33°C° 0 mm 1 mps 742 mmHg 50%
    13:00 +32°C° 0 mm 1 mps 742 mmHg 54%
    14:00 +32°C° 0 mm 1 mps 741 mmHg 58%
    15:00 +31°C° 0 mm 2 mps 741 mmHg 62%
    16:00 +29°C° 0.1 mm 1 mps 741 mmHg 72%
    17:00 +27°C° 0.1 mm 1 mps 742 mmHg 81%
    18:00 +25°C° 0.1 mm 1 mps 742 mmHg 90%
    19:00 +25°C° 0.6 mm 1 mps 743 mmHg 92%
    20:00 +25°C° 0.6 mm 1 mps 743 mmHg 93%
    21:00 +25°C° 0.6 mm 1 mps 743 mmHg 95%
    22:00 +24°C° 0.4 mm 1 mps 743 mmHg 95%
    23:00 +24°C° 0.4 mm 1 mps 743 mmHg 96%
    Show more